Simultaneous Nadir Overpasses (SNOs) Predictions

Prediction of SNOs between GOES-15 and METOP-A Satellite Orbit:

Table of predicted SNOs for the next 14.0 days since TLE Epoch: 11/27/2021
Index Date Time (GOES-15) GOES-15 Lat,Lon METOP-A Lat,Lon Distance(km) Time Diff (sec)
1 11/27/2021 16:26:24 -0.25,-128.27 -0.08,-129.08 92.11 80
2 11/30/2021 04:25:33 0.24,-128.19 0.27,-128.13 7.26 80
3 12/02/2021 16:24:04 -0.24,-128.16 -0.37,-127.67 55.51 80
4 12/03/2021 04:39:18 0.24,-128.11 -0.59,-131.99 440.43 80
5 12/05/2021 04:20:32 0.23,-128.05 0.52,-126.71 152.60 80
6 12/05/2021 16:37:49 -0.23,-128.06 0.50,-131.52 393.37 80
7 12/07/2021 16:19:01 -0.22,-128.00 -0.59,-126.24 199.77 80
8 12/08/2021 04:36:59 0.21,-127.95 -0.34,-130.57 298.02 80
9 12/10/2021 04:15:34 0.21,-127.88 0.77,-125.30 293.79 80
10 12/10/2021 16:35:25 -0.21,-127.89 0.25,-130.09 249.49 80
